• In Österreich
  • Länderverzeichnis
  • Für 7 Tage
  • Wassertemperatur
  • Satellitenkarten
  • Wetterkarte
  • News
  • Widgets
  • user-avatar
    Anmelden

    Stündliche Wetter Aschtarak

    Heute, 25 Mai, Freitag

    Zeit Temperatur Niederschläge Wind Luftdruck Luftfeuchtigkeit
    00:00 +14°C° 0 mm 1 m/S 656 mmHg 60%
    01:00 +14°C° 0 mm 1 m/S 656 mmHg 60%
    02:00 +13°C° 0 mm 1 m/S 656 mmHg 59%
    03:00 +13°C° 0 mm 1 m/S 655 mmHg 59%
    04:00 +14°C° 0,1 mm 1 m/S 656 mmHg 59%
    05:00 +15°C° 0,1 mm 1 m/S 656 mmHg 60%
    06:00 +16°C° 0,1 mm 1 m/S 656 mmHg 60%
    07:00 +18°C° 0,2 mm 1 m/S 656 mmHg 58%
    08:00 +19°C° 0,2 mm 1 m/S 656 mmHg 56%
    09:00 +20°C° 0,2 mm 2 m/S 656 mmHg 54%
    10:00 +21°C° 0,3 mm 2 m/S 656 mmHg 52%
    11:00 +23°C° 0,3 mm 2 m/S 656 mmHg 50%
    12:00 +24°C° 0,3 mm 2 m/S 656 mmHg 48%
    13:00 +24°C° 0,6 mm 2 m/S 656 mmHg 47%
    14:00 +24°C° 0,6 mm 2 m/S 656 mmHg 46%
    15:00 +25°C° 0,6 mm 2 m/S 656 mmHg 45%
    16:00 +24°C° 0,4 mm 2 m/S 656 mmHg 48%
    17:00 +23°C° 0,4 mm 2 m/S 656 mmHg 51%
    18:00 +23°C° 0,4 mm 2 m/S 656 mmHg 53%
    19:00 +21°C° 0,3 mm 1 m/S 656 mmHg 56%
    20:00 +20°C° 0,3 mm 1 m/S 656 mmHg 59%
    21:00 +18°C° 0,3 mm 1 m/S 656 mmHg 62%
    22:00 +18°C° 0,3 mm 1 m/S 656 mmHg 63%
    23:00 +16°C° 0,3 mm 1 m/S 656 mmHg 63%

    Morgen, 26 Mai, Samstag

    Zeit Temperatur Niederschläge Wind Luftdruck Luftfeuchtigkeit
    00:00 +16°C° 0,3 mm 1 m/S 656 mmHg 64%
    01:00 +16°C° 0,2 mm 1 m/S 656 mmHg 65%
    02:00 +15°C° 0,2 mm 1 m/S 655 mmHg 67%
    03:00 +15°C° 0,2 mm 1 m/S 655 mmHg 68%
    04:00 +16°C° 0,1 mm 1 m/S 656 mmHg 68%
    05:00 +16°C° 0,1 mm 1 m/S 656 mmHg 67%
    06:00 +18°C° 0,1 mm 1 m/S 656 mmHg 67%
    07:00 +19°C° 0,1 mm 1 m/S 657 mmHg 62%
    08:00 +20°C° 0,1 mm 2 m/S 657 mmHg 58%
    09:00 +21°C° 0,1 mm 2 m/S 657 mmHg 53%
    10:00 +24°C° 0,2 mm 2 m/S 657 mmHg 50%
    11:00 +25°C° 0,2 mm 2 m/S 657 mmHg 47%
    12:00 +26°C° 0,2 mm 2 m/S 658 mmHg 45%
    13:00 +26°C° 0,5 mm 2 m/S 657 mmHg 44%
    14:00 +26°C° 0,5 mm 2 m/S 657 mmHg 42%
    15:00 +27°C° 0,5 mm 3 m/S 657 mmHg 41%
    16:00 +26°C° 0,5 mm 2 m/S 657 mmHg 45%
    17:00 +25°C° 0,5 mm 2 m/S 657 mmHg 48%
    18:00 +24°C° 0,5 mm 2 m/S 657 mmHg 52%
    19:00 +23°C° 0,6 mm 2 m/S 657 mmHg 56%
    20:00 +21°C° 0,6 mm 1 m/S 657 mmHg 59%
    21:00 +19°C° 0,6 mm 1 m/S 657 mmHg 63%
    22:00 +19°C° 0,8 mm 1 m/S 657 mmHg 65%
    23:00 +18°C° 0,8 mm 1 m/S 658 mmHg 66%

    übermorgen, 27 Mai, Sonntag

    Zeit Temperatur Niederschläge Wind Luftdruck Luftfeuchtigkeit
    00:00 +18°C° 0,8 mm 1 m/S 658 mmHg 68%
    01:00 +18°C° 0,5 mm 1 m/S 658 mmHg 68%
    02:00 +16°C° 0,5 mm 1 m/S 658 mmHg 68%
    03:00 +16°C° 0,5 mm 1 m/S 658 mmHg 69%
    04:00 +18°C° 0,1 mm 1 m/S 659 mmHg 68%
    05:00 +18°C° 0,1 mm 1 m/S 659 mmHg 67%
    06:00 +19°C° 0,1 mm 1 m/S 659 mmHg 66%
    07:00 +20°C° 0 mm 1 m/S 660 mmHg 60%
    08:00 +22°C° 0 mm 1 m/S 660 mmHg 54%
    09:00 +24°C° 0 mm 2 m/S 661 mmHg 48%
    10:00 +25°C° 0 mm 2 m/S 661 mmHg 45%
    11:00 +26°C° 0 mm 2 m/S 661 mmHg 42%
    12:00 +27°C° 0 mm 2 m/S 661 mmHg 38%
    13:00 +27°C° 0,1 mm 2 m/S 661 mmHg 38%
    14:00 +27°C° 0,1 mm 2 m/S 661 mmHg 38%
    15:00 +27°C° 0,1 mm 2 m/S 661 mmHg 37%
    16:00 +27°C° 0,2 mm 2 m/S 661 mmHg 42%
    17:00 +26°C° 0,2 mm 2 m/S 661 mmHg 47%
    18:00 +25°C° 0,2 mm 2 m/S 661 mmHg 52%
    19:00 +23°C° 0,5 mm 2 m/S 661 mmHg 59%
    20:00 +20°C° 0,5 mm 2 m/S 661 mmHg 66%
    21:00 +18°C° 0,5 mm 3 m/S 661 mmHg 72%
    22:00 +18°C° 0,2 mm 3 m/S 661 mmHg 74%
    23:00 +17°C° 0,2 mm 3 m/S 662 mmHg 76%

    28 Mai, Montag

    Zeit Temperatur Niederschläge Wind Luftdruck Luftfeuchtigkeit
    00:00 +17°C° 0,2 mm 3 m/S 662 mmHg 78%
    01:00 +16°C° 0,1 mm 2 m/S 661 mmHg 79%
    02:00 +16°C° 0,1 mm 2 m/S 661 mmHg 80%
    03:00 +16°C° 0,1 mm 2 m/S 661 mmHg 81%
    04:00 +16°C° 0 mm 2 m/S 661 mmHg 80%
    05:00 +16°C° 0 mm 2 m/S 661 mmHg 78%
    06:00 +18°C° 0 mm 1 m/S 661 mmHg 77%
    07:00 +20°C° 0 mm 1 m/S 662 mmHg 68%
    08:00 +22°C° 0 mm 1 m/S 662 mmHg 58%
    09:00 +24°C° 0 mm 1 m/S 662 mmHg 49%
    10:00 +25°C° 0,1 mm 1 m/S 662 mmHg 46%
    11:00 +26°C° 0,1 mm 1 m/S 661 mmHg 42%
    12:00 +28°C° 0,1 mm 2 m/S 661 mmHg 38%
    13:00 +28°C° 0,1 mm 2 m/S 661 mmHg 38%
    14:00 +28°C° 0,1 mm 2 m/S 660 mmHg 37%
    15:00 +28°C° 0,1 mm 2 m/S 660 mmHg 37%
    16:00 +27°C° 0,2 mm 1 m/S 660 mmHg 41%
    17:00 +27°C° 0,2 mm 1 m/S 659 mmHg 46%
    18:00 +26°C° 0,2 mm 1 m/S 659 mmHg 50%
    19:00 +24°C° 0,3 mm 1 m/S 659 mmHg 54%
    20:00 +22°C° 0,3 mm 1 m/S 659 mmHg 58%
    21:00 +21°C° 0,3 mm 1 m/S 659 mmHg 62%
    22:00 +20°C° 0,4 mm 1 m/S 659 mmHg 64%
    23:00 +20°C° 0,4 mm 1 m/S 659 mmHg 65%

    29 Mai, Dienstag

    Zeit Temperatur Niederschläge Wind Luftdruck Luftfeuchtigkeit
    00:00 +19°C° 0,4 mm 2 m/S 659 mmHg 66%
    01:00 +18°C° 0,2 mm 2 m/S 659 mmHg 69%
    02:00 +17°C° 0,2 mm 2 m/S 658 mmHg 71%
    03:00 +16°C° 0,2 mm 2 m/S 658 mmHg 74%
    04:00 +18°C° 0,1 mm 1 m/S 658 mmHg 73%
    05:00 +19°C° 0,1 mm 1 m/S 659 mmHg 73%
    06:00 +19°C° 0,1 mm 1 m/S 659 mmHg 72%
    07:00 +21°C° 0,1 mm 1 m/S 659 mmHg 65%
    08:00 +22°C° 0,1 mm 1 m/S 659 mmHg 58%
    09:00 +24°C° 0,1 mm 1 m/S 659 mmHg 50%
    10:00 +25°C° 0,2 mm 1 m/S 659 mmHg 48%
    11:00 +26°C° 0,2 mm 2 m/S 659 mmHg 47%
    12:00 +27°C° 0,2 mm 2 m/S 659 mmHg 45%
    13:00 +27°C° 0,3 mm 2 m/S 659 mmHg 45%
    14:00 +27°C° 0,3 mm 2 m/S 658 mmHg 45%
    15:00 +27°C° 0,3 mm 2 m/S 658 mmHg 46%
    16:00 +26°C° 0,5 mm 3 m/S 658 mmHg 50%
    17:00 +25°C° 0,5 mm 3 m/S 658 mmHg 55%
    18:00 +24°C° 0,5 mm 3 m/S 658 mmHg 59%
    19:00 +22°C° 0,6 mm 3 m/S 658 mmHg 64%
    20:00 +20°C° 0,6 mm 3 m/S 658 mmHg 68%
    21:00 +19°C° 0,6 mm 3 m/S 658 mmHg 73%
    22:00 +18°C° 0,7 mm 3 m/S 658 mmHg 76%
    23:00 +18°C° 0,7 mm 3 m/S 659 mmHg 78%

    30 Mai, Mittwoch

    Zeit Temperatur Niederschläge Wind Luftdruck Luftfeuchtigkeit
    00:00 +17°C° 0,7 mm 2 m/S 659 mmHg 81%
    01:00 +17°C° 2,6 mm 2 m/S 659 mmHg 83%
    02:00 +16°C° 2,6 mm 2 m/S 658 mmHg 85%
    03:00 +16°C° 2,6 mm 2 m/S 658 mmHg 87%
    04:00 +16°C° 0,8 mm 2 m/S 659 mmHg 86%
    05:00 +15°C° 0,8 mm 2 m/S 659 mmHg 84%
    06:00 +15°C° 0,8 mm 2 m/S 659 mmHg 82%
    07:00 +17°C° 0 mm 2 m/S 659 mmHg 78%
    08:00 +18°C° 0 mm 2 m/S 659 mmHg 73%
    09:00 +19°C° 0 mm 2 m/S 660 mmHg 68%
    10:00 +20°C° 0 mm 2 m/S 659 mmHg 64%
    11:00 +21°C° 0 mm 2 m/S 659 mmHg 60%
    12:00 +24°C° 0 mm 2 m/S 659 mmHg 55%
    13:00 +24°C° 0,5 mm 2 m/S 659 mmHg 54%
    14:00 +25°C° 0,5 mm 2 m/S 659 mmHg 52%
    15:00 +26°C° 0,5 mm 2 m/S 659 mmHg 50%
    16:00 +25°C° 0,7 mm 2 m/S 658 mmHg 53%
    17:00 +24°C° 0,7 mm 2 m/S 658 mmHg 56%
    18:00 +24°C° 0,7 mm 2 m/S 658 mmHg 59%
    19:00 +21°C° 1,1 mm 2 m/S 658 mmHg 64%
    20:00 +20°C° 1,1 mm 2 m/S 658 mmHg 70%
    21:00 +18°C° 1,1 mm 2 m/S 658 mmHg 76%
    22:00 +18°C° 0,4 mm 2 m/S 658 mmHg 76%
    23:00 +19°C° 0,4 mm 1 m/S 657 mmHg 77%
    Mehr zeigen